WMT2YZ LRTM-EDJA

Flight info

Callsign WMT2YZ
Flight time 1h 37m
Altitude 38000
Route ELROM DCT BUDOP DCT SUNIS DCT RASTA DCT ERKIR L608 KPT KPT1C
Aircraft A320/M-SDE1E2E3FGIJ1J4RWXY/LB1

Departure

Time 2026-04-25 11:36
Airport Târgu Mureş Transilvania International Airport (LRTM)

Arrival

Time 2026-04-25 13:13
Airport Memmingen Allgau Airport (EDJA)
Time Latitude Longitude Altitude Speed Heading
2026-04-25 11:20 46.46784 24.42276 975 ft 0 kts 347°
2026-04-25 11:32 46.46785 24.42275 972 ft 1 kts 347°
2026-04-25 11:33 46.46796 24.42272 986 ft 3 kts 347°
2026-04-25 11:33 46.46819 24.42265 978 ft 4 kts 355°
2026-04-25 11:33 46.46836 24.42298 980 ft 5 kts 73°
2026-04-25 11:33 46.46846 24.42356 974 ft 7 kts 75°
2026-04-25 11:34 46.46861 24.42431 972 ft 9 kts 73°
2026-04-25 11:34 46.46880 24.42522 973 ft 9 kts 57°
2026-04-25 11:34 46.46894 24.42528 974 ft 1 kts
2026-04-25 11:34 46.46915 24.42525 972 ft 5 kts 348°
2026-04-25 11:35 46.46954 24.42506 980 ft 7 kts 344°
2026-04-25 11:35 46.47003 24.42483 979 ft 7 kts 329°
2026-04-25 11:35 46.46998 24.42385 973 ft 16 kts 254°
2026-04-25 11:35 46.46900 24.41893 974 ft 87 kts 255°
2026-04-25 11:36 46.46677 24.40757 981 ft 144 kts 253°
2026-04-25 11:36 46.46374 24.39289 1482 ft 150 kts 253°
2026-04-25 11:36 46.46082 24.37864 2239 ft 147 kts 253°
2026-04-25 11:36 46.45778 24.36322 2468 ft 171 kts 254°
2026-04-25 11:37 46.45433 24.34550 2709 ft 195 kts 253°
2026-04-25 11:37 46.45040 24.32534 3054 ft 220 kts 254°
2026-04-25 11:37 46.44650 24.30291 3480 ft 245 kts 263°
2026-04-25 11:37 46.45016 24.27850 4197 ft 259 kts 300°
2026-04-25 11:38 46.46380 24.26125 5111 ft 269 kts 335°
2026-04-25 11:38 46.48250 24.25637 5789 ft 278 kts 355°
2026-04-25 11:38 46.50143 24.25197 6734 ft 275 kts 336°
2026-04-25 11:38 46.51734 24.23731 7653 ft 272 kts 317°
2026-04-25 11:39 46.53236 24.22049 8627 ft 274 kts 323°
2026-04-25 11:39 46.54832 24.20516 9585 ft 277 kts 325°
2026-04-25 11:39 46.56474 24.19016 10330 ft 285 kts 326°
2026-04-25 11:39 46.58198 24.17441 10603 ft 308 kts 326°
2026-04-25 11:40 46.60040 24.15729 11145 ft 319 kts 326°
2026-04-25 11:40 46.61915 24.13957 11920 ft 323 kts 326°
2026-04-25 11:40 46.63796 24.12153 12760 ft 326 kts 326°
2026-04-25 11:40 46.65692 24.10317 13587 ft 329 kts 325°
2026-04-25 11:41 46.67603 24.08452 14344 ft 332 kts 325°
2026-04-25 11:41 46.69528 24.06566 15060 ft 335 kts 325°
2026-04-25 11:41 46.71472 24.04660 15778 ft 338 kts 325°
2026-04-25 11:41 46.73432 24.02737 16518 ft 341 kts 324°
2026-04-25 11:42 46.75383 24.00823 17235 ft 344 kts 324°
2026-04-25 11:42 46.77366 23.98861 17924 ft 346 kts 322°
2026-04-25 11:42 46.79109 23.96429 18571 ft 348 kts 307°
2026-04-25 11:42 46.80335 23.93378 19192 ft 351 kts 292°
2026-04-25 11:43 46.80948 23.89914 19855 ft 356 kts 278°
2026-04-25 11:43 46.80886 23.86271 20549 ft 364 kts 264°
2026-04-25 11:43 46.80413 23.82632 21220 ft 367 kts 263°
2026-04-25 11:43 46.79920 23.78969 21862 ft 369 kts 263°
2026-04-25 11:44 46.79427 23.75328 22482 ft 372 kts 263°
2026-04-25 11:44 46.78922 23.71612 23094 ft 375 kts 263°
2026-04-25 11:44 46.78411 23.67861 23650 ft 379 kts 263°
2026-04-25 11:44 46.77897 23.64078 24173 ft 382 kts 263°
2026-04-25 11:45 46.77378 23.60256 24705 ft 385 kts 263°
2026-04-25 11:45 46.76853 23.56409 25244 ft 388 kts 263°
2026-04-25 11:45 46.76330 23.52588 25760 ft 391 kts 263°
2026-04-25 11:45 46.75793 23.48687 26279 ft 394 kts 263°
2026-04-25 11:46 46.75330 23.44743 26784 ft 394 kts 269°
2026-04-25 11:46 46.75202 23.40759 27288 ft 395 kts 272°
2026-04-25 11:46 46.75105 23.36737 27802 ft 398 kts 272°
2026-04-25 11:46 46.75005 23.32702 28339 ft 400 kts 272°
2026-04-25 11:47 46.74901 23.28636 28863 ft 403 kts 272°
2026-04-25 11:47 46.74791 23.24542 29357 ft 406 kts 272°
2026-04-25 11:47 46.74679 23.20420 29809 ft 408 kts 272°
2026-04-25 11:47 46.74562 23.16265 30216 ft 411 kts 272°
2026-04-25 11:48 46.74445 23.12148 30602 ft 413 kts 272°
2026-04-25 11:48 46.74324 23.07955 31040 ft 414 kts 272°
2026-04-25 11:48 46.74201 23.03783 31596 ft 411 kts 272°
2026-04-25 11:48 46.74079 22.99628 32173 ft 409 kts 272°
2026-04-25 11:49 46.73960 22.95509 32732 ft 406 kts 272°
2026-04-25 11:49 46.73840 22.91398 33274 ft 404 kts 271°
2026-04-25 11:49 46.73717 22.87315 33836 ft 402 kts 271°
2026-04-25 11:49 46.73595 22.83251 34349 ft 400 kts 271°
2026-04-25 11:50 46.73474 22.79209 34788 ft 399 kts 271°
2026-04-25 11:50 46.73353 22.75172 35241 ft 398 kts 271°
2026-04-25 11:50 46.73230 22.71203 35673 ft 397 kts 271°
2026-04-25 11:50 46.73104 22.67180 35945 ft 397 kts 271°
2026-04-25 11:51 46.72845 22.59145 36000 ft 397 kts 271°
2026-04-25 11:51 46.72573 22.51119 36000 ft 396 kts 271°
2026-04-25 11:52 46.72301 22.43155 36000 ft 396 kts 271°
2026-04-25 11:52 46.72037 22.35153 35999 ft 395 kts 271°
2026-04-25 11:53 46.71757 22.27131 35998 ft 402 kts 271°
2026-04-25 11:53 46.71459 22.18806 35999 ft 418 kts 270°
2026-04-25 11:54 46.71153 22.10359 36000 ft 421 kts 270°
2026-04-25 11:55 46.70671 21.97565 35997 ft 422 kts 270°
2026-04-25 11:55 46.70342 21.89033 35994 ft 422 kts 270°
2026-04-25 11:56 46.70013 21.80495 35997 ft 422 kts 270°
2026-04-25 11:56 46.69671 21.71963 35995 ft 422 kts 270°
2026-04-25 11:57 46.69323 21.63486 35994 ft 422 kts 270°
2026-04-25 11:57 46.68971 21.54958 35994 ft 421 kts 270°
2026-04-25 11:58 46.69100 21.46496 35998 ft 416 kts 281°
2026-04-25 11:58 46.70032 21.38169 36002 ft 416 kts 281°
2026-04-25 11:59 46.70950 21.29895 36001 ft 416 kts 281°
2026-04-25 11:59 46.71855 21.21563 36003 ft 416 kts 281°
2026-04-25 12:00 46.73204 21.09068 36005 ft 415 kts 281°
2026-04-25 12:01 46.74543 20.96588 36001 ft 415 kts 281°
2026-04-25 12:01 46.75423 20.88324 35996 ft 416 kts 281°
2026-04-25 12:02 46.76746 20.75828 35996 ft 416 kts 281°
2026-04-25 12:02 46.77620 20.67499 35997 ft 415 kts 281°
2026-04-25 12:03 46.78477 20.59166 35997 ft 415 kts 280°
2026-04-25 12:03 46.79325 20.50892 35997 ft 415 kts 280°
2026-04-25 12:04 46.80177 20.42563 35991 ft 415 kts 280°
2026-04-25 12:04 46.81028 20.34206 35994 ft 417 kts 280°
2026-04-25 12:05 46.81868 20.25827 35994 ft 417 kts 280°
2026-04-25 12:05 46.82703 20.17496 35996 ft 417 kts 280°
2026-04-25 12:06 46.83539 20.09112 35999 ft 417 kts 280°
2026-04-25 12:06 46.84362 20.00717 36000 ft 417 kts 280°
2026-04-25 12:07 46.85180 19.92318 36002 ft 417 kts 280°
2026-04-25 12:07 46.85995 19.83928 36002 ft 417 kts 279°
2026-04-25 12:08 46.86796 19.75591 36002 ft 417 kts 279°
2026-04-25 12:08 46.87591 19.67194 36002 ft 417 kts 279°
2026-04-25 12:09 46.88383 19.58793 36005 ft 417 kts 279°
2026-04-25 12:09 46.89170 19.50389 36005 ft 417 kts 279°
2026-04-25 12:10 46.89947 19.42048 36007 ft 417 kts 279°
2026-04-25 12:10 46.90730 19.33649 36010 ft 417 kts 279°
2026-04-25 12:11 46.91496 19.25251 36013 ft 417 kts 279°
2026-04-25 12:11 46.92259 19.16844 36013 ft 417 kts 279°
2026-04-25 12:12 46.92894 19.09851 36016 ft 417 kts 279°
2026-04-25 12:12 46.93768 19.00070 36015 ft 417 kts 278°
2026-04-25 12:13 46.94508 18.91654 36018 ft 417 kts 278°
2026-04-25 12:13 46.95251 18.83236 36018 ft 417 kts 278°
2026-04-25 12:14 46.95986 18.74818 36021 ft 417 kts 278°
2026-04-25 12:14 46.96709 18.66446 36021 ft 417 kts 278°
2026-04-25 12:15 46.97424 18.58016 36020 ft 417 kts 278°
2026-04-25 12:15 46.98140 18.49576 36020 ft 417 kts 278°
2026-04-25 12:16 46.98848 18.41139 36023 ft 417 kts 278°
2026-04-25 12:16 46.99550 18.32707 36030 ft 417 kts 278°
2026-04-25 12:17 47.00247 18.24326 36029 ft 417 kts 278°
2026-04-25 12:17 47.00935 18.15897 36030 ft 417 kts 278°
2026-04-25 12:18 47.01610 18.07460 36029 ft 417 kts 277°
2026-04-25 12:18 47.02291 17.99017 36029 ft 417 kts 278°
2026-04-25 12:19 47.03296 17.86412 36028 ft 417 kts 277°
2026-04-25 12:20 47.03957 17.77974 36027 ft 417 kts 277°
2026-04-25 12:20 47.04613 17.69523 36032 ft 417 kts 277°
2026-04-25 12:21 47.05261 17.61069 36032 ft 417 kts 277°
2026-04-25 12:21 47.05905 17.52620 36032 ft 417 kts 277°
2026-04-25 12:22 47.06537 17.44212 36032 ft 418 kts 277°
2026-04-25 12:22 47.07171 17.35741 36032 ft 418 kts 277°
2026-04-25 12:23 47.07794 17.27264 36028 ft 418 kts 276°
2026-04-25 12:23 47.08412 17.18793 36027 ft 418 kts 276°
2026-04-25 12:24 47.09024 17.10370 36021 ft 418 kts 276°
2026-04-25 12:24 47.09630 17.01882 36021 ft 418 kts 276°
2026-04-25 12:25 47.10226 16.93397 36020 ft 418 kts 276°
2026-04-25 12:25 47.10823 16.84904 36016 ft 418 kts 276°
2026-04-25 12:26 47.11416 16.76406 36016 ft 418 kts 276°
2026-04-25 12:26 47.12000 16.67965 36016 ft 418 kts 276°
2026-04-25 12:27 47.12575 16.59467 36014 ft 418 kts 276°
2026-04-25 12:27 47.13143 16.50967 36013 ft 418 kts 276°
2026-04-25 12:28 47.13703 16.42456 36013 ft 418 kts 276°
2026-04-25 12:28 47.14312 16.34015 36009 ft 418 kts 280°
2026-04-25 12:29 47.15424 16.25636 36011 ft 418 kts 281°
2026-04-25 12:29 47.16537 16.17244 36009 ft 418 kts 281°
2026-04-25 12:30 47.17453 16.10265 36014 ft 418 kts 281°
2026-04-25 12:30 47.18720 16.00499 36010 ft 418 kts 280°
2026-04-25 12:31 47.19803 15.92102 36011 ft 418 kts 280°
2026-04-25 12:31 47.20701 15.85110 36012 ft 419 kts 280°
2026-04-25 12:32 47.21777 15.76693 36012 ft 419 kts 280°
2026-04-25 12:32 47.22848 15.68267 36013 ft 419 kts 280°
2026-04-25 12:33 47.24074 15.58467 36009 ft 419 kts 280°
2026-04-25 12:33 47.24962 15.51406 36016 ft 419 kts 280°
2026-04-25 12:34 47.26013 15.43016 36012 ft 420 kts 280°
2026-04-25 12:34 47.27065 15.34557 36015 ft 420 kts 280°
2026-04-25 12:35 47.28105 15.26088 36016 ft 421 kts 279°
2026-04-25 12:35 47.29142 15.17612 36022 ft 420 kts 279°
2026-04-25 12:36 47.30165 15.09189 36022 ft 420 kts 279°
2026-04-25 12:36 47.31188 15.00710 36028 ft 421 kts 279°
2026-04-25 12:37 47.32208 14.92209 36030 ft 421 kts 279°
2026-04-25 12:37 47.33228 14.83714 36031 ft 421 kts 279°
2026-04-25 12:38 47.34231 14.75214 36032 ft 421 kts 279°
2026-04-25 12:38 47.35225 14.66764 36027 ft 421 kts 279°
2026-04-25 12:39 47.36224 14.58249 36037 ft 422 kts 279°
2026-04-25 12:39 47.37215 14.49720 36038 ft 422 kts 279°
2026-04-25 12:40 47.38193 14.41177 36052 ft 423 kts 279°
2026-04-25 12:40 47.39166 14.32688 36059 ft 422 kts 279°
2026-04-25 12:41 47.40137 14.24147 36060 ft 422 kts 278°
2026-04-25 12:41 47.41099 14.15602 36060 ft 422 kts 278°
2026-04-25 12:42 47.42055 14.07040 36069 ft 422 kts 278°
2026-04-25 12:42 47.43012 13.98494 36066 ft 422 kts 278°
2026-04-25 12:43 47.43962 13.89994 36070 ft 422 kts 278°
2026-04-25 12:43 47.45374 13.77143 36074 ft 422 kts 278°
2026-04-25 12:44 47.46301 13.68579 36070 ft 422 kts 278°
2026-04-25 12:45 47.47676 13.55766 36072 ft 423 kts 278°
2026-04-25 12:45 47.49041 13.42900 36068 ft 423 kts 278°
2026-04-25 12:46 47.49687 13.34254 36068 ft 423 kts 272°
2026-04-25 12:46 47.49998 13.25574 36064 ft 423 kts 272°
2026-04-25 12:47 47.50307 13.16936 36061 ft 423 kts 272°
2026-04-25 12:47 47.50619 13.08249 36069 ft 423 kts 272°
2026-04-25 12:48 47.50914 12.99561 36066 ft 423 kts 272°
2026-04-25 12:48 47.51195 12.90866 36066 ft 424 kts 272°
2026-04-25 12:49 47.51471 12.82219 36066 ft 423 kts 272°
2026-04-25 12:49 47.51746 12.73557 35826 ft 416 kts 272°
2026-04-25 12:50 47.51875 12.69344 35662 ft 404 kts 271°
2026-04-25 12:50 47.52000 12.65229 35306 ft 397 kts 271°
2026-04-25 12:50 47.52120 12.61165 34913 ft 394 kts 271°
2026-04-25 12:50 47.52239 12.57138 34513 ft 390 kts 271°
2026-04-25 12:51 47.52355 12.53144 34121 ft 387 kts 270°
2026-04-25 12:51 47.52470 12.49231 33657 ft 384 kts 270°
2026-04-25 12:51 47.52588 12.45299 33178 ft 382 kts 271°
2026-04-25 12:51 47.52704 12.41400 32500 ft 376 kts 270°
2026-04-25 12:52 47.52818 12.37543 31660 ft 373 kts 271°
2026-04-25 12:52 47.52928 12.33671 30837 ft 379 kts 271°
2026-04-25 12:52 47.53034 12.29817 30561 ft 372 kts 270°
2026-04-25 12:52 47.53136 12.26003 30165 ft 370 kts 270°
2026-04-25 12:53 47.53237 12.22216 29722 ft 366 kts 270°
2026-04-25 12:53 47.53336 12.18468 29335 ft 362 kts 271°
2026-04-25 12:53 47.53433 12.14814 28962 ft 359 kts 270°
2026-04-25 12:53 47.53527 12.11146 28575 ft 355 kts 270°
2026-04-25 12:54 47.53616 12.07508 28216 ft 352 kts 270°
2026-04-25 12:54 47.53705 12.03908 27849 ft 347 kts 271°
2026-04-25 12:54 47.53872 12.00368 27495 ft 345 kts 277°
2026-04-25 12:54 47.54342 11.96902 27110 ft 342 kts 280°
2026-04-25 12:55 47.54831 11.93466 26729 ft 340 kts 280°
2026-04-25 12:55 47.55150 11.91203 26479 ft 339 kts 279°
2026-04-25 12:55 47.55779 11.86705 25964 ft 336 kts 279°
2026-04-25 12:55 47.56251 11.83326 25585 ft 334 kts 279°
2026-04-25 12:56 47.56721 11.79962 25187 ft 333 kts 280°
2026-04-25 12:56 47.57188 11.76613 24794 ft 332 kts 280°
2026-04-25 12:56 47.57653 11.73270 24392 ft 331 kts 280°
2026-04-25 12:56 47.58118 11.69927 23985 ft 331 kts 280°
2026-04-25 12:57 47.58580 11.66590 23571 ft 331 kts 280°
2026-04-25 12:57 47.59039 11.63249 23118 ft 331 kts 280°
2026-04-25 12:57 47.59492 11.59967 22715 ft 328 kts 280°
2026-04-25 12:57 47.59948 11.56659 22288 ft 327 kts 280°
2026-04-25 12:58 47.60398 11.53375 21871 ft 324 kts 280°
2026-04-25 12:58 47.60842 11.50108 21456 ft 323 kts 280°
2026-04-25 12:58 47.61285 11.46853 21043 ft 321 kts 280°
2026-04-25 12:58 47.61725 11.43616 20639 ft 320 kts 280°
2026-04-25 12:59 47.62237 11.40415 20233 ft 319 kts 287°
2026-04-25 12:59 47.63143 11.37409 19809 ft 320 kts 296°
2026-04-25 12:59 47.64204 11.34517 19387 ft 320 kts 296°
2026-04-25 12:59 47.65247 11.31654 18972 ft 319 kts 296°
2026-04-25 13:00 47.66300 11.28753 18556 ft 319 kts 296°
2026-04-25 13:00 47.67007 11.26798 18273 ft 319 kts 296°
2026-04-25 13:00 47.68389 11.22959 17661 ft 317 kts 296°
2026-04-25 13:00 47.69422 11.20077 17241 ft 315 kts 296°
2026-04-25 13:01 47.70449 11.17211 16833 ft 314 kts 297°
2026-04-25 13:01 47.71472 11.14358 16421 ft 313 kts 297°
2026-04-25 13:01 47.72493 11.11513 16012 ft 311 kts 297°
2026-04-25 13:01 47.73496 11.08715 15610 ft 311 kts 297°
2026-04-25 13:02 47.74513 11.05883 15196 ft 310 kts 297°
2026-04-25 13:02 47.75525 11.03056 14793 ft 310 kts 297°
2026-04-25 13:02 47.76534 11.00232 14376 ft 309 kts 297°
2026-04-25 13:02 47.77541 10.97406 13983 ft 309 kts 297°
2026-04-25 13:03 47.78544 10.94588 13544 ft 309 kts 297°
2026-04-25 13:03 47.79550 10.91758 13130 ft 309 kts 297°
2026-04-25 13:03 47.80551 10.88945 12724 ft 307 kts 297°
2026-04-25 13:03 47.81536 10.86173 12351 ft 306 kts 297°
2026-04-25 13:04 47.82527 10.83380 11955 ft 305 kts 297°
2026-04-25 13:04 47.83513 10.80602 11555 ft 303 kts 297°
2026-04-25 13:04 47.84496 10.77833 11157 ft 302 kts 297°
2026-04-25 13:04 47.85461 10.75113 10998 ft 292 kts 297°
2026-04-25 13:05 47.86395 10.72478 10818 ft 284 kts 297°
2026-04-25 13:05 47.87305 10.69905 10295 ft 279 kts 296°
2026-04-25 13:05 47.88202 10.67359 9694 ft 276 kts 296°
2026-04-25 13:05 47.89081 10.64863 9255 ft 267 kts 296°
2026-04-25 13:06 47.89914 10.62494 8905 ft 258 kts 297°
2026-04-25 13:06 47.90730 10.60171 8551 ft 248 kts 296°
2026-04-25 13:06 47.91525 10.57905 8244 ft 248 kts 296°
2026-04-25 13:06 47.92327 10.55615 7917 ft 250 kts 296°
2026-04-25 13:07 47.93150 10.53325 7580 ft 251 kts 301°
2026-04-25 13:07 47.94366 10.51445 7240 ft 257 kts 324°
2026-04-25 13:07 47.96020 10.50428 6913 ft 263 kts 347°
2026-04-25 13:07 47.97890 10.50479 6310 ft 280 kts 12°
2026-04-25 13:08 47.99743 10.51332 5771 ft 278 kts
2026-04-25 13:08 48.01596 10.51371 5513 ft 260 kts 347°
2026-04-25 13:08 48.03262 10.50601 5338 ft 242 kts 333°
2026-04-25 13:08 48.04669 10.49410 5226 ft 225 kts 326°
2026-04-25 13:09 48.05964 10.48151 5103 ft 217 kts 315°
2026-04-25 13:09 48.06742 10.46345 5025 ft 202 kts 284°
2026-04-25 13:09 48.06790 10.44306 4889 ft 198 kts 256°
2026-04-25 13:09 48.06197 10.42441 4667 ft 200 kts 241°
2026-04-25 13:10 48.05498 10.40683 4414 ft 192 kts 240°
2026-04-25 13:10 48.04852 10.39049 4165 ft 177 kts 240°
2026-04-25 13:10 48.04258 10.37547 3954 ft 157 kts 241°
2026-04-25 13:10 48.03732 10.36204 3701 ft 144 kts 242°
2026-04-25 13:11 48.03235 10.34918 3483 ft 141 kts 242°
2026-04-25 13:11 48.02737 10.33678 3316 ft 139 kts 242°
2026-04-25 13:11 48.02245 10.32433 3164 ft 140 kts 242°
2026-04-25 13:11 48.01744 10.31175 2968 ft 141 kts 240°
2026-04-25 13:12 48.01244 10.29940 2794 ft 140 kts 242°
2026-04-25 13:12 48.00760 10.28700 2585 ft 135 kts 243°
2026-04-25 13:12 48.00282 10.27476 2368 ft 139 kts 241°
2026-04-25 13:12 47.99952 10.26658 2266 ft 137 kts 240°
2026-04-25 13:13 47.99314 10.25041 2084 ft 130 kts 240°
2026-04-25 13:13 47.98920 10.24043 2074 ft 88 kts 239°
2026-04-25 13:13 47.98692 10.23473 2082 ft 43 kts 239°
2026-04-25 13:13 47.98548 10.23110 2083 ft 39 kts 239°
2026-04-25 13:14 47.98420 10.22787 2087 ft 35 kts 239°
2026-04-25 13:14 47.98358 10.22586 2090 ft 8 kts 291°
2026-04-25 13:14 47.98407 10.22539 2091 ft 9 kts 346°
2026-04-25 13:14 47.98461 10.22602 2089 ft 13 kts 57°
2026-04-25 13:15 47.98532 10.22713 2083 ft 18 kts 15°
2026-04-25 13:15 47.98660 10.22715 2076 ft 17 kts
2026-04-25 13:15 47.98709 10.22853 2077 ft 17 kts 78°
2026-04-25 13:15 47.98723 10.22944 2078 ft 2 kts 54°
2026-04-25 13:16 47.98741 10.22960 2078 ft 4 kts 31°
2026-04-25 13:16 47.98761 10.22998 2078 ft 6 kts 66°
2026-04-25 13:16 47.98777 10.23065 2076 ft 8 kts 70°
2026-04-25 13:16 47.98792 10.23130 2078 ft 2 kts 70°
2026-04-25 13:17 47.98797 10.23150 2075 ft 1 kts 70°
2026-04-25 13:17 47.98797 10.23151 2075 ft 0 kts 70°
2026-04-25 13:18 47.98802 10.23171 2078 ft 4 kts 70°
2026-04-25 13:18 47.98820 10.23210 2078 ft 5 kts 33°
2026-04-25 13:18 47.98858 10.23220 2078 ft 6 kts 39°
2026-04-25 13:18 47.98871 10.23243 2077 ft 0 kts 46°